Weather History for Rickenbacker, OH

Change the Weather History Date:

Thursday, February 13, 2014

  Actual Average Record
Temperature  
Mean Temperature 27 °F -  
Max Temperature 36 °F 41 °F 54 °F (2011)
Min Temperature 18 °F 26 °F 14 °F (2003)
Degree Days  
Heating Degree Days 38    
Moisture  
Dew Point 11 °F    
Average Humidity 55    
Maximum Humidity 64    
Minimum Humidity 37    
Precipitation  
Precipitation 0.00 in - - ()
Sea Level Pressure  
Sea Level Pressure 29.80 in    
Wind  
Wind Speed 6 mph (WNW)    
Max Wind Speed 9 mph    
Max Gust Speed -    
Visibility 10 miles    
Events      
Averages and records for this station are not official NWS values.
T = Trace of Precipitation, MM = Missing Value Source: NWS Daily Summary

Daily Weather History Graph

Daily Weather History Graph

Search for Another Location

Airport:

Trip Planner

Search our weather history database for the weather conditions in past years. The results will help you decide how hot, cold, wet, or windy it might be!

Date:

Astronomy

Feb. 13, 2014 Rise Set
Actual Time 7:26 AM EST 6:05 PM EST
Civil Twilight 6:59 AM EST 6:33 PM EST
Nautical Twilight 6:27 AM EST 7:05 PM EST
Astronomical Twilight 5:55 AM EST 7:36 PM EST
Moon 5:12 PM EST (2/13) 6:19 AM EST (2/13)
Length of Visible Light 11h 34m
Length of Day
10h 38m
Waxing Gibbous, 98% of the Moon is Illuminated
Feb 13
Waxing Gibbous
Feb 14
Full
Feb 22
Last Quarter
Mar 1
New
Mar 8
First Quarter

Hourly Weather History & Observations

Time (EST) Temp. Windchill Dew Point Humidity Pressure Visibility Wind Dir Wind Speed Gust Speed Precip Events Conditions
12:15 AM 20.8 °F 12.1 °F 6.3 °F 53% 30.00 in 10.0 mi NE 6.9 mph - N/A   Clear
12:35 AM 20.3 °F 13.8 °F 6.4 °F 55% 30.00 in 10.0 mi NNE 4.6 mph - N/A   Clear
12:55 AM 21.0 °F 16.2 °F 6.3 °F 53% 29.99 in 10.0 mi NE 3.5 mph - N/A   Clear
1:15 AM 21.2 °F 14.9 °F 5.7 °F 51% 29.98 in 10.0 mi NE 4.6 mph - N/A   Clear
1:35 AM 21.2 °F 13.6 °F 5.9 °F 52% 29.98 in 10.0 mi NE 5.8 mph - N/A   Clear
1:55 AM 20.7 °F 10.2 °F 6.8 °F 55% 29.96 in 10.0 mi NNE 9.2 mph - N/A   Clear
2:15 AM 21.2 °F 11.7 °F 7.5 °F 56% 29.95 in 10.0 mi NNE 8.1 mph - N/A   Clear
2:35 AM 21.2 °F 11.7 °F 7.7 °F 56% 29.95 in 10.0 mi NNE 8.1 mph - N/A   Clear
2:55 AM 20.7 °F 11.9 °F 7.7 °F 57% 29.94 in 10.0 mi NNE 6.9 mph - N/A   Clear
3:15 AM 20.8 °F 16.0 °F 8.2 °F 58% 29.93 in 10.0 mi NNE 3.5 mph - N/A   Clear
3:35 AM 20.1 °F 9.5 °F 8.4 °F 61% 29.91 in 10.0 mi NE 9.2 mph - N/A   Clear
3:55 AM 19.4 °F 10.4 °F 8.1 °F 61% 29.91 in 10.0 mi NNE 6.9 mph - N/A   Clear
4:15 AM 20.1 °F 10.3 °F 9.0 °F 62% 29.91 in 10.0 mi NNW 8.1 mph - N/A   Clear
4:35 AM 21.0 °F 13.4 °F 9.0 °F 60% 29.90 in 10.0 mi North 5.8 mph - N/A   Clear
4:55 AM 21.2 °F 14.9 °F 9.0 °F 59% 29.90 in 10.0 mi North 4.6 mph - N/A   Clear
5:15 AM 20.5 °F 14.0 °F 9.0 °F 61% 29.90 in 10.0 mi NNW 4.6 mph - N/A   Clear
5:35 AM 19.2 °F 11.3 °F 8.6 °F 63% 29.89 in 10.0 mi North 5.8 mph - N/A   Clear
5:55 AM 19.9 °F 11.1 °F 8.4 °F 61% 29.90 in 10.0 mi NNW 6.9 mph - N/A   Clear
6:15 AM 18.5 °F 8.4 °F 7.9 °F 63% 29.90 in 10.0 mi NNW 8.1 mph - N/A   Clear
6:35 AM 18.3 °F 10.2 °F 7.9 °F 64% 29.90 in 10.0 mi North 5.8 mph - N/A   Clear
6:55 AM 19.2 °F 11.3 °F 7.3 °F 60% 29.90 in 10.0 mi North 5.8 mph - N/A   Clear
7:15 AM 19.0 °F 12.3 °F 7.0 °F 59% 29.91 in 10.0 mi NNE 4.6 mph - N/A   Clear
7:35 AM 18.3 °F 10.2 °F 6.6 °F 60% 29.90 in 10.0 mi NNE 5.8 mph - N/A   Clear
7:55 AM 18.1 °F 7.9 °F 6.6 °F 61% 29.90 in 10.0 mi NNW 8.1 mph - N/A   Clear
8:15 AM 18.1 °F 7.1 °F 7.2 °F 62% 29.90 in 10.0 mi NNW 9.2 mph - N/A   Clear
8:35 AM 18.3 °F 13.1 °F 7.5 °F 63% 29.90 in 10.0 mi NNE 3.5 mph - N/A   Clear
8:55 AM 18.5 °F 13.3 °F 7.7 °F 63% 29.89 in 10.0 mi NNE 3.5 mph - N/A   Clear
9:15 AM 19.6 °F 10.6 °F 7.9 °F 60% 29.88 in 10.0 mi North 6.9 mph - N/A   Clear
9:35 AM 21.9 °F 15.7 °F 7.9 °F 55% 29.87 in 10.0 mi North 4.6 mph - N/A   Clear
9:55 AM 22.8 °F 16.7 °F 8.4 °F 54% 29.86 in 10.0 mi NW 4.6 mph - N/A   Clear
10:15 AM 22.5 °F 15.1 °F 9.3 °F 57% 29.85 in 10.0 mi NW 5.8 mph - N/A   Clear
10:35 AM 21.7 °F 12.3 °F 8.8 °F 57% 29.85 in 7.0 mi NW 8.1 mph - N/A   Clear
10:55 AM 22.5 °F 15.1 °F 8.8 °F 56% 29.84 in 10.0 mi NW 5.8 mph - N/A   Clear
11:15 AM 24.8 °F 20.5 °F 9.5 °F 52% 29.83 in 7.0 mi NNW 3.5 mph - N/A   Clear
11:35 AM 26.6 °F 22.6 °F 9.9 °F 49% 29.83 in 10.0 mi NW 3.5 mph - N/A   Clear
11:55 AM 28.6 °F 22.4 °F 10.4 °F 47% 29.82 in 10.0 mi WNW 5.8 mph - N/A   Clear
12:15 PM 30.0 °F 26.5 °F 10.6 °F 44% 29.80 in 10.0 mi WNW 3.5 mph - N/A   Clear
12:35 PM 31.3 °F - 10.2 °F 42% 29.78 in 10.0 mi Calm Calm - N/A   Clear
12:55 PM 32.2 °F - 10.4 °F 40% 29.77 in 10.0 mi Calm Calm - N/A   Clear
1:15 PM 33.4 °F - 11.1 °F 40% 29.76 in 10.0 mi Calm Calm - N/A   Clear
1:35 PM 34.5 °F 29.4 °F 11.8 °F 39% 29.76 in 10.0 mi WSW 5.8 mph - N/A   Clear
1:55 PM 35.4 °F 32.6 °F 11.3 °F 37% 29.74 in 10.0 mi SSW 3.5 mph - N/A   Clear
2:35 PM 36.7 °F 34.1 °F 12.9 °F 38% 29.72 in 10.0 mi SW 3.5 mph - N/A   Clear
2:55 PM 36.3 °F 31.6 °F 14.5 °F 41% 29.72 in 10.0 mi SW 5.8 mph - N/A   Clear
3:15 PM 35.1 °F 27.9 °F 15.1 °F 44% 29.72 in 10.0 mi WSW 9.2 mph - N/A   Clear
3:35 PM 35.1 °F 30.1 °F 14.7 °F 43% 29.71 in 10.0 mi SW 5.8 mph - N/A   Clear
3:55 PM 35.1 °F 29.3 °F 14.9 °F 44% 29.70 in 10.0 mi WSW 6.9 mph - N/A   Clear
4:15 PM 34.7 °F 28.8 °F 15.3 °F 45% 29.70 in 10.0 mi SW 6.9 mph - N/A   Clear
4:35 PM 34.0 °F 26.6 °F 16.2 °F 48% 29.71 in 10.0 mi WSW 9.2 mph - N/A   Clear
4:55 PM 33.3 °F 27.1 °F 15.1 °F 47% 29.70 in 10.0 mi WSW 6.9 mph - N/A   Clear
5:15 PM 32.4 °F 25.3 °F 14.7 °F 48% 29.70 in 10.0 mi SW 8.1 mph - N/A   Clear
5:35 PM 30.6 °F 24.7 °F 14.0 °F 50% 29.70 in 10.0 mi SSW 5.8 mph - N/A   Clear
5:55 PM 29.1 °F 21.3 °F 14.4 °F 54% 29.70 in 10.0 mi SW 8.1 mph - N/A   Clear
6:15 PM 28.4 °F 23.3 °F 14.2 °F 55% 29.70 in 10.0 mi SW 4.6 mph - N/A   Clear
6:35 PM 27.5 °F 23.6 °F 14.2 °F 57% 29.69 in 10.0 mi South 3.5 mph - N/A   Clear
6:55 PM 28.0 °F 24.2 °F 14.4 °F 57% 29.69 in 10.0 mi SSW 3.5 mph - N/A   Scattered Clouds
7:15 PM 28.4 °F 23.3 °F 16.5 °F 61% 29.68 in 10.0 mi South 4.6 mph - N/A   Mostly Cloudy
7:35 PM 28.9 °F 23.9 °F 16.5 °F 60% 29.68 in 10.0 mi South 4.6 mph - N/A   Overcast
7:55 PM 29.1 °F 24.1 °F 16.5 °F 59% 29.66 in 10.0 mi SSE 4.6 mph - N/A   Overcast
8:15 PM 29.3 °F 25.6 °F 17.1 °F 60% 29.66 in 10.0 mi South 3.5 mph - N/A   Overcast
8:35 PM 29.7 °F 24.7 °F 17.6 °F 61% 29.66 in 10.0 mi SSW 4.6 mph - N/A   Overcast
8:55 PM 29.3 °F 25.6 °F 17.1 °F 60% 29.65 in 10.0 mi South 3.5 mph - N/A   Mostly Cloudy
9:15 PM 28.0 °F 24.2 °F 15.6 °F 60% 29.65 in 10.0 mi SSW 3.5 mph - N/A   Mostly Cloudy
9:35 PM 27.1 °F 23.2 °F 15.3 °F 61% 29.64 in 10.0 mi South 3.5 mph - N/A   Scattered Clouds
9:55 PM 27.3 °F 23.4 °F 15.1 °F 60% 29.64 in 10.0 mi South 3.5 mph - N/A   Mostly Cloudy
10:55 PM 25.0 °F 18.1 °F 14.2 °F 64% 29.62 in 10.0 mi South 5.8 mph - N/A   Scattered Clouds
11:15 PM 25.0 °F 17.1 °F 13.5 °F 62% 29.61 in 10.0 mi SSW 6.9 mph - N/A   Mostly Cloudy
11:35 PM 27.5 °F 18.6 °F 13.8 °F 56% 29.60 in 10.0 mi SSW 9.2 mph - N/A   Overcast
11:55 PM 27.3 °F 19.1 °F 13.8 °F 57% 29.60 in 10.0 mi SW 8.1 mph - N/A   Mostly Cloudy